Location: Bonny Doon Airfield
(37.0704°N, 122.1252°W)
Time: 18:12:34
(UTC-07:00)

Vanguard 2 - Pass Details

Date: 13 December 2017
Orbit: 553 x 2939 km, 32.9° (Epoch: 21 July)

Event Time Altitude Azimuth Distance (km) Brightness Sun altitude
Rises 17:12:16 0° 260° (W) 3,926 13.0 -4.4°
Reaches altitude 10° 17:15:33 10° 256° (WSW) 2,633 12.0 -5.0°
Maximum altitude 17:21:14 53° 180° (S) 845 8.0 -6.0°
Drops below altitude 10° 17:25:19 10° 103° (ESE) 1,903 9.1 -6.7°
Enters shadow 17:26:30 - 100° (E) 2,378 9.6 -7.0°
Sets 17:27:22 0° 98° (E) 2,735 - -7.1°
